Theta_e
350 360 366 367 368 368 367 365 364 362 361 362 362 362 362 361 360 362 362 363 361 360 361 360 360 357 356 355 354 354 354 354 353 353 352 352 352 352 351 349 349 348 351
355 360 364 366 368 368 367 365 363 362 361 362 362 362 362 360 360 362 363 363 361 360 360 360 359 358 356 354 354 355 356 354 354 354 354 353 352 351 350 348 350 350 350
358 362 362 366 367 367 366 364 362 362 361 362 362 362 362 360 360 362 363 362 361 358 360 359 358 357 355 354 354 354 355 355 354 354 356 355 349 352 350 348 347 349 348
360 364 361 365 366 367 366 364 362 362 362 362 362 362 361 359 361 362 363 362 359 357 356 357 357 355 354 354 353 354 354 354 354 354 354 349 348 353 350 348 348 349 348
362 363 363 365 365 366 366 364 362 362 362 362 362 362 360 360 361 362 362 362 358 356 355 354 354 354 353 353 353 353 352 352 354 354 356 351 350 352 352 349 349 350 349
361 361 361 364 364 365 365 364 363 363 363 362 362 361 360 361 362 361 362 361 359 356 355 355 355 354 354 353 354 355 353 353 354 356 352 352 351 354 354 352 349 348 351
358 360 360 363 363 364 364 364 363 362 361 361 361 361 361 361 360 360 360 359 358 356 356 356 355 356 355 354 353 352 348 350 350 352 349 351 354 353 351 351 351 351 350
356 360 358 362 362 362 362 362 362 361 360 360 360 360 361 360 360 359 359 360 359 359 358 357 356 355 355 353 353 351 350 351 350 351 349 350 347 349 351 353 354 354 353
357 359 356 353 359 361 360 360 360 359 359 359 358 359 359 359 359 359 358 358 358 358 358 357 355 355 354 353 353 352 351 350 347 348 346 345 348 346 346 352 355 357 357
356 356 355 352 351 352 356 360 359 359 358 358 358 358 358 359 359 358 356 357 358 358 358 356 355 354 353 354 352 351 351 352 344 344 344 343 348 346 347 351 352 356 358
354 355 353 351 350 348 347 354 357 357 358 358 358 358 355 350 354 356 352 356 357 356 355 355 355 354 353 352 353 353 352 343 341 344 339 348 348 345 349 352 353 354 357
351 353 353 353 350 348 347 354 351 350 350 351 350 353 349 349 351 348 351 356 357 354 353 353 353 353 351 344 346 350 343 339 337 338 337 350 348 346 350 352 354 355 355
353 353 353 357 358 352 349 353 349 350 349 349 350 351 352 348 350 346 348 351 353 353 350 348 346 344 342 340 338 345 342 339 337 338 343 351 349 348 351 351 353 358 359
353 354 355 357 356 360 350 352 349 350 351 350 351 353 353 349 352 350 345 349 350 349 349 348 345 347 342 340 341 340 339 338 338 338 346 354 351 349 350 349 351 355 357
355 356 357 362 360 358 363 353 352 352 352 354 354 356 353 353 354 352 350 348 348 346 347 346 346 347 345 345 343 341 340 341 342 341 345 353 350 349 350 351 351 351 350
357 357 360 361 370 365 361 364 358 360 357 356 355 356 357 357 358 353 352 350 349 348 347 346 346 346 344 344 342 344 344 346 345 345 346 348 351 350 348 349 350 347 347
356 360 364 363 367 369 368 364 359 356 356 355 355 360 358 359 362 359 353 351 350 352 353 352 349 348 346 344 347 346 348 351 349 348 347 347 347 347 347 349 348 343 345
354 359 360 360 363 366 366 364 360 358 356 356 357 356 358 361 359 360 353 352 352 353 349 348 347 344 343 343 351 345 348 352 351 349 348 348 344 342 348 348 348 341 345
357 361 361 362 360 362 367 365 364 367 360 360 360 358 361 360 359 359 355 353 362 351 350 349 348 351 350 348 348 348 346 345 344 342 349 349 348 345 343 346 342 339 340
359 361 365 363 365 359 360 364 359 359 358 358 359 359 361 359 358 361 356 360 357 355 349 349 354 353 351 349 341 338 339 341 342 343 344 344 345 347 347 348 344 339 339
359 360 362 360 368 358 355 355 352 351 354 355 356 359 360 359 359 362 358 355 356 353 354 352 352 346 343 345 341 340 342 346 347 345 347 341 342 343 343 345 339 335 334
354 358 363 361 361 358 356 356 355 355 354 354 355 358 360 356 357 356 356 354 355 355 352 344 345 339 341 342 335 341 330 332 337 342 338 333 337 332 331 336 336 337 339
348 354 359 362 360 354 355 356 357 358 353 353 356 355 355 354 355 355 355 356 354 352 343 341 344 346 339 345 347 340 328 324 329 334 340 334 341 334 335 336 338 335 341
341 350 355 355 356 353 353 352 354 348 349 349 351 351 352 353 353 352 352 352 353 347 343 344 344 348 343 340 340 343 344 338 329 326 334 336 335 339 342 330 331 335 337
335 343 352 352 353 352 350 352 352 355 349 348 347 355 354 351 351 348 351 351 349 346 347 347 347 347 348 343 339 338 343 334 340 330 324 325 330 330 331 330 330 331 336
331 340 350 352 347 346 348 352 356 354 349 345 346 348 351 346 349 348 347 350 351 351 349 347 349 347 346 347 343 340 335 330 326 325 321 324 323 325 327 329 330 330 332
Wind_Speed
19 22 16 16 16 16 17 17 17 16 16 15 15 15 13 12 12 12 12 12 11 11 10 11 11 10 10 9 9 9 9 9 10 9 8 9 9 8 7 2 1 9 8
22 23 16 16 16 16 17 17 16 16 15 14 15 14 13 12 11 11 11 11 11 11 11 12 11 10 9 9 9 9 9 8 8 7 7 10 9 8 5 2 6 10 7
21 21 19 16 17 16 16 16 16 16 16 16 16 15 14 13 13 12 10 11 11 11 10 10 10 10 9 9 8 8 7 6 4 6 10 10 11 10 7 4 3 4 3
21 19 19 16 17 16 16 16 17 16 15 15 15 15 14 14 14 12 11 11 11 10 9 9 9 9 9 8 8 8 7 5 6 9 10 6 13 12 7 5 4 3 2
19 18 18 17 17 17 16 16 16 16 16 15 15 14 13 13 12 11 10 10 10 9 9 9 9 9 9 8 8 7 6 5 9 11 15 4 3 13 10 6 8 8 5
18 19 20 17 18 17 17 18 17 17 17 17 15 14 13 12 10 9 8 8 9 9 9 9 8 8 9 8 7 5 4 5 9 13 4 6 6 12 9 6 4 2 7
18 17 19 16 17 18 17 16 16 16 17 17 17 17 15 13 11 10 9 9 9 9 9 9 9 8 8 7 5 3 2 7 11 7 3 2 12 7 3 4 5 6 6
17 17 18 15 15 15 15 15 15 15 16 16 16 16 15 13 12 11 10 9 9 9 9 9 9 8 7 6 5 5 4 7 11 3 3 3 10 8 6 8 9 10 10
17 17 17 17 15 14 14 14 14 14 15 15 14 14 14 13 11 10 9 9 9 9 9 8 8 8 7 8 8 7 7 9 11 7 6 6 12 11 10 11 12 13 13
17 17 18 17 16 15 14 12 12 12 12 12 12 12 11 10 9 9 8 8 9 8 8 9 9 9 8 7 8 9 9 11 12 14 7 3 12 9 10 11 11 11 13
15 18 18 18 17 16 16 13 11 11 10 10 10 9 10 10 12 13 12 14 9 7 7 8 8 7 8 9 10 11 11 9 14 9 8 13 11 6 9 10 10 11 11
18 19 18 18 17 17 14 15 13 12 11 11 11 12 10 10 10 10 10 12 9 9 8 8 8 8 9 10 10 13 9 12 12 8 7 12 8 2 7 9 10 10 11
19 16 19 17 15 16 13 12 8 8 8 9 13 12 11 8 8 8 7 8 8 10 8 10 10 9 12 11 12 11 13 13 7 8 8 12 9 2 7 7 9 9 10
19 18 18 19 15 13 11 11 11 10 10 9 11 13 9 7 7 7 7 8 8 9 10 10 8 10 12 13 12 13 11 9 8 7 9 12 9 6 8 9 9 9 8
18 18 16 17 15 13 9 11 11 11 10 11 11 13 10 9 7 7 7 7 7 8 9 9 9 8 9 10 12 12 12 12 12 7 5 10 10 7 8 9 8 7 6
17 17 16 17 13 12 11 10 8 7 10 9 9 11 14 8 7 7 7 7 7 7 7 6 8 8 9 10 12 12 11 11 12 9 8 3 9 10 10 10 10 7 7
16 17 15 15 15 13 12 9 9 9 8 8 9 10 13 10 8 7 8 7 8 6 6 6 8 7 7 10 11 9 7 8 9 10 8 8 5 10 11 11 8 8 7
17 19 18 16 17 15 12 10 9 8 8 8 7 9 12 8 10 6 9 7 7 5 7 8 8 9 9 9 6 8 7 4 8 7 7 7 8 7 8 10 9 9 9
18 17 16 18 18 13 12 7 9 8 7 5 2 1 9 7 5 10 8 8 6 7 7 7 7 6 6 7 9 8 8 7 8 10 13 12 11 8 7 12 11 11 10
10 10 16 13 15 14 8 6 7 6 7 6 2 3 7 8 11 7 10 8 4 4 9 7 4 3 4 4 6 8 7 9 9 10 9 10 12 14 8 7 7 10 16
15 14 15 13 13 12 9 9 9 10 7 6 5 8 9 9 11 10 7 7 7 7 8 4 4 4 3 4 5 6 10 13 13 9 9 9 8 8 10 8 5 6 9
15 15 16 13 13 11 9 9 8 7 8 7 7 7 10 9 7 8 9 8 7 6 4 1 5 3 7 5 4 5 9 8 10 7 8 6 6 4 6 8 8 5 7
16 16 15 14 15 9 8 7 5 5 7 6 4 4 6 8 9 8 7 5 6 3 4 4 7 9 7 7 10 6 6 9 4 9 7 6 7 4 7 7 8 8 7
17 16 14 16 16 11 12 8 10 9 9 9 8 6 6 7 6 5 7 7 5 4 5 5 5 9 6 7 9 10 10 6 7 9 10 8 6 9 10 7 8 8 9
17 16 14 18 15 12 10 10 9 10 7 5 5 8 6 4 5 5 3 5 6 6 6 9 8 9 7 7 9 8 4 4 7 9 10 9 8 8 9 9 9 8 8
17 17 15 16 14 12 9 7 11 8 3 6 4 6 5 3 3 3 5 3 5 5 7 5 6 7 7 6 8 8 8 9 10 9 10 11 12 11 10 9 9 9 9
Wind_Direction
139 144 142 140 141 147 152 150 149 148 148 149 144 136 136 139 137 136 130 122 119 123 128 140 135 125 126 122 112 107 103 103 103 108 114 112 110 107 111 132 319 117 112
140 149 146 143 144 149 153 150 148 146 147 145 138 136 139 139 139 138 135 127 123 125 129 131 131 125 126 126 125 125 121 118 121 138 152 144 128 126 130 119 23 94 120
138 152 156 146 145 148 152 149 147 147 148 145 142 144 145 145 146 144 140 130 127 131 133 135 131 134 136 136 134 126 122 122 148 199 205 203 126 149 151 136 93 97 117
138 149 157 147 146 148 150 148 145 145 144 142 144 147 148 150 152 150 144 134 135 138 139 139 139 139 139 140 141 135 132 147 207 234 235 210 131 149 156 157 153 161 200
144 155 145 149 146 147 146 145 144 142 141 143 145 146 149 149 148 146 143 138 145 145 147 147 144 146 148 149 144 143 144 189 240 251 251 104 131 145 156 173 180 187 211
148 164 138 148 146 148 150 146 145 145 144 143 145 146 148 146 140 139 141 146 152 152 155 151 150 152 153 151 152 152 170 240 272 250 51 101 292 139 153 183 239 229 188
155 155 154 148 147 149 147 145 145 147 147 148 151 152 152 148 147 144 149 156 160 163 163 158 161 160 157 158 154 157 236 287 277 269 181 324 74 96 137 193 241 252 242
159 143 153 146 146 144 143 145 148 150 151 152 154 153 153 151 152 153 160 163 165 172 167 170 172 168 160 163 174 199 227 271 287 287 272 108 114 128 182 212 223 233 237
159 145 153 166 153 141 142 146 149 154 154 153 156 155 155 154 154 159 165 171 173 174 173 175 177 178 177 184 198 213 229 251 275 273 234 207 160 173 192 208 219 223 224
160 154 161 165 168 171 161 141 148 155 153 152 153 154 153 152 158 168 171 184 184 179 178 178 185 188 191 204 218 229 241 255 261 269 232 218 157 189 213 223 230 235 235
165 160 164 164 169 178 165 156 148 152 146 145 151 152 155 188 181 172 200 157 180 186 193 198 200 199 205 218 227 230 240 248 248 234 257 134 151 205 242 244 242 238 239
174 166 166 164 173 180 166 155 178 171 177 182 183 176 200 206 185 201 183 163 172 190 200 206 215 218 220 236 208 218 237 252 260 263 268 136 137 184 268 265 262 258 253
177 172 169 162 176 183 173 157 181 174 177 188 188 180 212 201 185 216 178 184 201 198 212 198 204 226 232 240 257 193 219 227 249 262 104 125 121 156 266 268 264 259 256
174 176 173 161 178 198 174 165 187 181 185 191 192 186 209 217 193 218 220 190 197 202 220 224 216 221 233 245 266 281 275 264 276 265 134 137 141 187 247 262 258 268 263
172 176 179 161 179 193 199 171 197 192 186 194 184 187 215 211 207 213 236 246 207 221 206 231 247 252 233 245 259 261 264 275 285 288 298 151 162 200 246 254 250 248 260
175 175 175 168 173 187 200 177 198 196 173 202 200 189 207 215 207 217 219 223 252 239 253 256 234 251 247 251 258 246 259 281 282 267 290 231 165 185 219 243 250 266 259
181 174 174 180 175 187 204 185 194 191 224 196 220 192 194 213 226 231 220 227 235 238 264 276 277 269 255 271 268 282 280 264 265 275 275 268 240 186 207 219 239 266 261
194 177 182 182 178 184 196 193 201 205 202 213 210 198 198 205 233 209 255 233 237 240 246 237 242 244 255 257 267 275 275 305 292 276 262 268 271 276 200 215 213 246 238
193 171 178 181 182 176 203 171 207 212 222 208 189 166 165 163 228 243 233 249 215 242 248 254 256 276 334 315 325 335 327 312 287 271 245 247 253 251 228 204 194 221 226
166 157 180 181 175 162 185 173 185 210 206 229 147 152 166 195 209 239 245 263 249 251 253 242 316 281 269 268 298 299 285 268 264 257 259 264 244 235 226 247 213 220 206
180 182 175 185 164 154 174 173 175 198 214 211 196 205 209 207 218 228 252 268 249 237 270 278 245 281 281 245 273 272 279 247 230 236 248 235 253 210 228 220 240 266 197
187 186 164 181 160 168 173 187 188 193 194 199 199 197 210 219 210 234 235 236 241 251 266 308 288 262 253 221 259 263 275 271 227 199 242 260 247 283 286 235 240 254 278
179 185 180 155 157 156 155 176 144 156 183 203 174 167 214 226 228 228 250 236 231 214 243 218 219 270 281 280 230 245 303 298 344 212 191 220 235 243 265 277 273 293 292
180 182 184 135 149 160 161 158 169 182 181 196 178 202 198 224 239 221 222 232 219 211 197 250 247 248 255 263 266 216 233 258 286 311 305 306 265 220 229 259 272 253 245
180 168 175 128 153 143 151 178 182 211 159 171 193 127 241 169 238 249 246 248 222 215 220 247 251 251 251 264 289 302 307 224 241 256 284 282 276 284 292 302 309 295 273
176 160 152 135 137 140 155 187 205 167 147 135 181 173 167 140 230 240 311 225 248 245 254 262 281 261 277 289 281 309 304 295 297 298 294 293 296 295 291 293 293 288 287